This demonstration page uses our WeatherBlox Daily Observations layout. Learn more.

Left ArrowRight Arrow

39.51506, -84.39828

Hourly Observations for October 1, 2018

Temp ( °F °C ) Dew Point ( °F °C ) Humidity (%) Winds ( mph kmh ) Pressure ( in mb ) Visibility ( mi km ) Precip ( " mm )
12:15 am 00:15 Clear with Mist and Fog 57 13.7 56 13.5 99 99 Calm 30.24 1024 5 8.0467 0 0
12:35 am 00:35 Clear with Mist and Fog 56 13.6 56 13.5 99 99 Calm 30.24 1024 5 8.0467 0 0
12:55 am 00:55 Clear with Mist and Fog 56 13.4 56 13.2 99 99 Calm 30.24 1024 5 8.0467 0 0
1:15 am 01:15 Clear with Mist and Fog 56 13.3 56 13.2 99 99 Calm 30.21 1023 5 8.0467 0 0
1:35 am 01:35 Mostly Cloudy with Fog 55 12.9 55 12.8 99 99 Calm 30.21 1023 0.5 0.80467 0 0
1:55 am 01:55 Mostly Cloudy with Fog 56 13.1 55 13 99 99 Calm 30.21 1023 0.25 0.402335 0 0
2:15 am 02:15 Mostly Cloudy with Fog 55 12.9 55 12.8 99 99 Calm 30.21 1023 0.5 0.80467 0 0
2:35 am 02:35 Mostly Cloudy with Fog 55 12.9 55 12.8 99 99 Calm 30.21 1023 0.25 0.402335 0 0
2:55 am 02:55 Clear with Mist and Fog 55 12.5 54 12.4 99 99 Calm 30.24 1024 3 4.82802 0 0
3:15 am 03:15 Clear with Mist and Fog 55 12.5 54 12.4 99 99 Calm 30.21 1023 3.5 5.63269 0 0
3:35 am 03:35 Clear with Mist and Fog 54 12.3 54 12.3 100 100 Calm 30.21 1023 3 4.82802 0 0
3:55 am 03:55 Clear with Mist and Fog 55 12.7 55 12.6 99 99 Calm 30.21 1023 4 6.43736 0 0
4:15 am 04:15 Clear with Mist and Fog 55 12.6 55 12.5 99 99 Calm 30.24 1024 4 6.43736 0 0
4:35 am 04:35 Clear with Mist and Fog 54 12.3 54 12.2 99 99 Calm 30.24 1024 3 4.82802 0 0
4:55 am 04:55 Mostly Cloudy with Fog 53 11.9 53 11.9 100 100 Calm 30.24 1024 0.5 0.80467 0 0
5:15 am 05:15 Mostly Cloudy with Fog 53 11.5 53 11.5 100 100 Calm 30.24 1024 0.25 0.402335 0 0
5:35 am 05:35 Mostly Cloudy with Mist and Fog 53 11.6 53 11.5 99 99 Calm 30.24 1024 1 1.60934 0 0
5:55 am 05:55 Clear with Mist and Fog 53 11.9 53 11.8 99 99 Calm 30.24 1024 2.5 4.02335 0 0
6:15 am 06:15 Mostly Cloudy with Mist and Fog 53 11.9 53 11.8 99 99 Calm 30.24 1024 1 1.60934 0 0
6:35 am 06:35 Mostly Cloudy with Fog 52 11.2 52 11.1 99 99 Calm 30.24 1024 0.5 0.80467 0 0
6:55 am 06:55 Mostly Cloudy with Fog 53 11.4 52 11.3 99 99 Calm 30.24 1024 0.25 0.402335 0 0
7:15 am 07:15 Mostly Cloudy with Fog 53 11.8 53 11.8 100 100 Calm 30.27 1025 0.5 0.80467 0 0
7:35 am 07:35 Mostly Cloudy with Fog 52 11.2 52 11.1 99 99 Calm 30.27 1025 0.25 0.402335 0 0
7:55 am 07:55 Sunny with Mist and Fog 53 11.4 53 11.4 100 100 Calm 30.27 1025 2 3.21868 0 0
8:15 am 08:15 Sunny with Mist and Fog 53 11.8 53 11.7 99 99 Calm 30.27 1025 4 6.43736 0 0
8:35 am 08:35 Sunny with Mist and Fog 56 13.1 55 13 99 99 Calm 30.27 1025 5 8.0467 0 0
8:55 am 08:55 Sunny with Mist and Fog 57 14.1 57 14 99 99 Calm 30.27 1025 5 8.0467 0 0
9:15 am 09:15 Sunny 60 15.4 59 15 97 97 Calm 30.27 1025 7 11.26538 0 0
9:35 am 09:35 Sunny with Mist and Fog 62 16.9 60 15.7 93 93 Calm 30.3 1026 7 11.26538 0 0
9:55 am 09:55 Sunny 65 18.1 62 16.5 90 90 S 3 6 30.27 1025 7 11.26538 0 0
10:15 am 10:15 Sunny 67 19.2 63 17 87 87 SSW 3 6 30.24 1024 10 16.0934 0 0
10:35 am 10:35 Sunny 69 20.6 63 17.4 82 82 S 5 7 30.24 1024 10 16.0934 0 0
10:55 am 10:55 Sunny 71 21.7 64 17.5 77 77 SSW 5 7 30.24 1024 10 16.0934 0 0
11:15 am 11:15 Sunny 73 22.5 64 17.6 74 74 SSW 5 7 30.24 1024 10 16.0934 0 0
11:35 am 11:35 Sunny 74 23.4 64 17.8 71 71 SW 3 6 30.24 1024 10 16.0934 0 0
11:55 am 11:55 Sunny 76 24.4 64 18 68 68 SSW 7 11 30.24 1024 10 16.0934 0 0
12:15 pm 12:15 Sunny 78 25.6 65 18.3 64 64 SSW 7 11 30.24 1024 10 16.0934 0 0
12:35 pm 12:35 Sunny 79 26.2 65 18.3 62 62 S 6 9 30.24 1024 10 16.0934 0 0
12:55 pm 12:55 Sunny 81 27.1 64 17.9 57 57 SW 8 13 30.24 1024 10 16.0934 0 0
1:15 pm 13:15 Sunny 81 27.4 64 18 57 57 SW 9 15 30.21 1023 10 16.0934 0 0
1:35 pm 13:35 Sunny 82 27.8 65 18.1 56 56 SW 13 20 30.21 1023 10 16.0934 0 0
1:55 pm 13:55 Partly Cloudy 82 28 65 18.6 57 57 SW 9 15 30.21 1023 10 16.0934 0 0
2:15 pm 14:15 Partly Cloudy 83 28.1 65 18.6 56 56 SW 9 15 30.21 1023 10 16.0934 0 0
2:35 pm 14:35 Sunny 83 28.6 65 18.6 55 55 SSW 10 17 30.18 1022 10 16.0934 0 0
2:55 pm 14:55 Sunny 83 28.2 65 18.1 54 54 SSW 15 24 30.18 1022 10 16.0934 0 0
3:15 pm 15:15 Sunny 83 28.1 65 18.4 56 56 SSW 10 17 30.18 1022 10 16.0934 0 0
3:35 pm 15:35 Sunny 83 28.3 65 18.3 55 55 SSW 12 19 30.15 1021 10 16.0934 0 0
3:55 pm 15:55 Sunny 83 28.5 65 18.3 54 54 SW 8 13 30.15 1021 10 16.0934 0 0
4:15 pm 16:15 Sunny 83 28.2 65 18.3 55 55 SW 8 13 30.15 1021 10 16.0934 0 0
4:35 pm 16:35 Partly Cloudy 83 28.4 65 18.2 54 54 SW 9 15 30.15 1021 10 16.0934 0 0
4:55 pm 16:55 Mostly Cloudy 83 28.3 65 18.3 55 55 SW 9 15 30.15 1021 10 16.0934 0 0
5:15 pm 17:15 Sunny 83 28.2 66 18.9 57 57 S 9 15 30.15 1021 10 16.0934 0 0
5:35 pm 17:35 Partly Cloudy 82 27.5 65 18.4 58 58 S 9 15 30.12 1020 10 16.0934 0 0
5:55 pm 17:55 Partly Cloudy 81 27 67 19.2 62 62 SW 6 9 30.12 1020 10 16.0934 0 0
6:15 pm 18:15 Partly Cloudy 80 26.5 67 19.3 65 65 SW 6 9 30.12 1020 10 16.0934 0 0
6:35 pm 18:35 Partly Cloudy 79 26.1 67 19.5 67 67 SSW 5 7 30.12 1020 10 16.0934 0 0
6:55 pm 18:55 Sunny 78 25.5 67 19.7 70 70 SW 3 6 30.12 1020 10 16.0934 0 0
7:15 pm 19:15 Sunny 74 23.4 70 20.9 86 86 Calm 30.12 1020 10 16.0934 0 0
7:35 pm 19:35 Clear 73 22.6 69 20.6 89 89 Calm 30.12 1020 10 16.0934 0 0
7:55 pm 19:55 Clear 72 22.1 69 20.4 90 90 Calm 30.12 1020 10 16.0934 0 0
8:15 pm 20:15 Partly Cloudy 71 21.6 69 20.3 92 92 Calm 30.12 1020 10 16.0934 0 0
8:35 pm 20:35 Mostly Cloudy 74 23.5 68 20 81 81 SSW 7 11 30.12 1020 10 16.0934 0 0
8:55 pm 20:55 Partly Cloudy 73 22.9 68 19.8 83 83 SW 6 9 30.12 1020 10 16.0934 0 0
9:15 pm 21:15 Clear 71 21.6 67 19.6 88 88 Calm 30.12 1020 10 16.0934 0 0
9:35 pm 21:35 Partly Cloudy 70 21.3 67 19.6 90 90 SW 5 7 30.12 1020 10 16.0934 0 0
9:55 pm 21:55 Clear 70 21 67 19.6 92 92 S 3 6 30.12 1020 10 16.0934 0 0
10:15 pm 22:15 Clear 69 20.5 67 19.4 93 93 Calm 30.12 1020 10 16.0934 0 0
10:35 pm 22:35 Clear 67 19.6 66 19.1 97 97 Calm 30.12 1020 10 16.0934 0 0
10:55 pm 22:55 Clear 67 19.2 66 18.8 98 98 Calm 30.12 1020 10 16.0934 0 0
11:15 pm 23:15 Clear with Mist and Fog 66 18.9 66 18.7 99 99 Calm 30.12 1020 2 3.21868 0 0
11:35 pm 23:35 Mostly Cloudy with Mist and Fog 65 18.5 65 18.3 99 99 Calm 30.12 1020 0.75 1.207005 0 0
11:55 pm 23:55 Clear with Mist and Fog 66 18.8 66 18.7 99 99 Calm 30.12 1020 4 6.43736 0 0

Powered by AerisWeather